Weather in Poltso

Russia / Republic of Mordovia     54°12′01″N   43°46′42″E
temp.,
°C
wind,
m/s
gust,
m/s
humid.,
%
clouds,
%
prec.,
mm/h
press.,
hPa
HPBL,
m
16 september, thu
thu1600:00+8wnw4784100 0.1 1012493
03:00+8wnw4785100 0.2 1012540
06:00+7wnw5883100 0.1 1013616
09:00+7nw5780100 0.5 1013787
12:00+11nw466791 0.2 10151165
15:00+12nw6760100 0.4 10161505
18:00+9nnw486490 0.0 1016595
21:00+9nnw4661100 0.0 1017618
17 september, fri
fri1700:00+8nw3660100 0.0 1018437
03:00+7nnw3657100 0.0 1018641
06:00+7wnw2562100 0.0 1018544
09:00+7nnw3558100 0.0 1018780
12:00+10nnw354699 0.0 10181735
15:00+10nw4448100 0.0 10181444
18:00+8nnw3554100 0.1 1018315
21:00+6nnw366384 0.1 1019191
18 september, sat
sat1800:00+4n23815 0.0 102044
03:00+2n23840 0.0 102149
06:00+1n34835 0.0 102378
09:00+7nne46625 0.0 1023728
12:00+10nne445058 0.0 10231332
15:00+10nne444942 0.0 10231319
18:00+6ne3563100 0.0 1024117
21:00+6ene2359100 0.0 102580
19 september, sun
sun1900:00+4ene2266100 0.0 102515
03:00+2ene3479100 0.0 102675
06:00+1e3480100 0.0 102670
09:00+7e4653100 0.0 1026602
12:00+11e4540100 0.0 10251183
15:00+11ese4538100 0.0 10241271
18:00+9e3747100 0.0 1024224
21:00+8e51150100 0.0 1024456
20 september, mon
mon2000:00+8ese51148100 0.0 1024549
03:00+5ese51278100 1.6 1023531
06:00+5e71490100 3.2 1022612
09:00+5e81691100 7.6 1022673
12:00+5e81692100 5.6 1022795
15:00+5ese81692100 9.3 1021846
18:00+5ese81693100 3.6 1021793
21:00+6ese81591100 4.0 1020821